Regional Weather Roundup
Issued by NWS Charleston, SC

Current Version | Previous Version | Text Only | Print | Product List | Glossary Off
Versions: 1 2 3 4 5 6 7 8 9 10 11 12 13 14 15 16 17 18 19 20 21 22 23 24 25 26 27 28 29 30 31 32 33 34 35 36 37 38 39 40 41 42 43 44 45 46 47 48 49 50

000
ASUS42 KCHS 250828
RWRCHS

REGIONAL WEATHER ROUNDUP
NATIONAL WEATHER SERVICE CHARLESTON SC
400 AM EDT SUN SEP 25 2016

NOTE: "FAIR" INDICATES FEW OR NO CLOUDS BELOW 12,000 FEET WITH NO
SIGNIFICANT WEATHER AND/OR OBSTRUCTIONS TO VISIBILITY.

NOT ALL STATIONS ARE QUALITY CONTROLLED. USE DATA WITH CAUTION...
ESPECIALLY DEWPOINT OBSERVATIONS.

SCZ027-030-031-034>040-042>050-250900-
...SOUTHEAST SOUTH CAROLINA...

CITY           SKY/WX    TMP DP  RH WIND       PRES   REMARKS
N CHARLESTON   PTCLDY    72  70  93 N5        30.02F
WATERFRONT PRK   N/A     78  75  90 VRB2      30.00F
MOUNT PLEASANT FAIR      72  72 100 CALM      30.03R FOG
JOHNS ISLAND   FAIR      75  73  94 CALM      30.02S
PINOPOLIS        N/A     73  73 100 MISG      29.95F
MONCKS CORNER  FOG       68  66  94 CALM      30.04R VSB 1/2
SUMMERVILLE    FOG       68  68 100 CALM      30.04S VSB 1/4
BEAUFORT MCAS  CLEAR     74  72  93 CALM      30.03S
BEAUFORT ARPT  FAIR      73  73 100 CALM      30.02S
HILTON HEAD IS CLEAR     73  73 100 CALM      30.03S
WALTERBORO     FOG       70  70 100 CALM      30.04S VSB 1
ALLENDALE      FAIR      70  68  94 CALM      30.04R

...SOUTHERN MIDLANDS AND PEE DEE...

CITY           SKY/WX    TMP DP  RH WIND       PRES   REMARKS
GEORGETOWN     FAIR      68  66  94 CALM      30.04R
KINGSTREE      CLOUDY    64  64 100 CALM      30.05R FOG
ORANGEBURG     CLEAR     68  67  96 CALM      30.05S
BARNWELL       NOT AVBL
AIKEN          FAIR      64  63  94 CALM      30.09S
MANNING        CLOUDY    64  63  94 CALM      30.05S
COLUMBIA       CLEAR     70  66  87 CALM      30.04S
SUMTER         CLEAR     69  67  91 CALM      30.03R
FLORENCE       CLEAR     70  67  90 CALM      30.05S
MYRTLE BEACH   CLEAR     72  63  73 CALM      30.05S
N MYRTLE BEACH CLEAR     69  68  96 CALM      30.03F FOG

$$

GAZ063-065-086>088-099>101-113>116-118-119-134>141-150-250900-
...SOUTHEAST GEORGIA...

CITY           SKY/WX    TMP DP  RH WIND       PRES   REMARKS
SAVANNAH ARPT  PTCLDY    73  71  93 CALM      30.03S
HUNTER AAF     CLEAR     73  73 100 W1        30.00S
FORT STEWART   MOCLDY    73  71  94 CALM      30.01S
STATESBORO     PTCLDY    72  72 100 CALM      30.04S
SYLVANIA       NOT AVBL
CLAXTON        FAIR      71  71 100 CALM      30.04S FOG

...CSRA...CENTRAL AND FAR SOUTHEAST GEORGIA...

CITY           SKY/WX    TMP DP  RH WIND       PRES   REMARKS
THOMSON        CLEAR     67  66  99 CALM      30.10S
AUGUSTA-BUSH   FOG       65  65 100 CALM      30.04S VSB 1/2
AUGUSTA-DANIEL CLEAR     74  66  76 CALM      30.05S
SWAINSBORO     FAIR      70  68  94 CALM      30.05S
VIDALIA        CLOUDY    73  73 100 CALM      30.04S
EASTMAN        FAIR      71  71 100 CALM      30.06S FOG
HAZLEHURST     FAIR      74  74 100 CALM      30.03S
ALMA           CLEAR     69  69 100 CALM      30.03S FOG
WAYCROSS       CLEAR     74  74 100 CALM      30.02F FOG
JESUP          FAIR      70  70 100 CALM      30.03S FOG
BAXLEY         FAIR      72  72 100 CALM      30.03S
BRUNSWICK      FOG       72  72 100 CALM      30.03S VSB 1/4
SAINT SIMONS   PTCLDY    74  72  93 CALM      30.02R

$$

SCZ027-028-034-036>038-045-046-048>050-GAZ119-141-250900-
...LAKE AND SUPPLEMENTAL COASTAL OBSERVATIONS...

STATION/POSITION TIME  TEMP    WIND        PRES    WAVE   SWELL
                       AIR SEA DIR/SP/G            HT/PER HT/PER/DIR
                 (UTC) (F)     (DEG/KT/KT) (MB)    (FT/S) (FT/S/D)
WINYAH BAY       0745   71     320/  3     1016.0S
LAKE MURRAY      0730   74        CALM     1016.9S
ACE BASIN NERRS  0745   73        CALM     1017.0S
FORT PULASKI     0800   76 81  320/  5/  5 1017.0
SAPELO ISLAND    0800   74        CALM     1016.0

$$

ANZ835-935-AMZ111-154-330-350-352-354-370-450-454-472-250900-
...C-MAN AND BUOY OBSERVATIONS...

STATION/POSITION TIME  TEMP    WIND        PRES    WAVE   SWELL
                       AIR SEA DIR/SP/G            HT/PER HT/PER/DIR
                 (UTC) (F)     (DEG/KT/KT) (MB)    (FT/S) (FT/S/D)
BUOY 41004       0750   80 82   50/ 10/ 12 1015.6S   4/10   3/100/10
BUOY 41008       0750   80 82   30/  2/  2 1016.0F   3/11   3/ 90/11
FOLLY BEACH CMAN 0800   79     350/  3/  4 1016.7F
CAPERS NEARSHORE 0808   80 81   40/  6/  8 1016.1F
FRIPP NEARSHORE  0808   79 81   50/  6/  8 1016.2F


STATION/POSITION TIME  TEMP    WIND        PRES    WAVE   SWELL
                       AIR SEA DIR/SP/G            HT/PER HT/PER/DIR
                 (UTC) (F)     (DEG/KT/KT) (MB)    (FT/S) (FT/S/D)
5E ST. MARYS GA  0801      82                N/A     3/11   2/100/11
FRYING PAN BUOY  0800   81 82   60/ 12/ 14 1016.0
BUOY 41025       0750   76 85   20/ 16/ 19 1016.9F   7/11   5/110/11
CAPE LOOKOUT NC  0800   77      50/ 13/ 15 1017.3S
BUOY 41002       0750   81 84   50/  4/  6 1015.0F   4/10   3/100/10
BUOY 41010       NOT AVBL
ST AUGUSTINE FL  0800   76 84  270/  3/  3 1016.9F


$$




USA.gov is the U.S. government's official web portal to all federal, state and local government web resources and services.